,,PA_Meas_PMT16A,,PR_Meas_QMR101_102,,RH_Meas_QMH101,,SR_Meas_QMS101,,TA_Meas_QMH101,,GenWind,,GenWind,
time,status,PA,status,PR,status,RH,status,SR,status,TA,status,DirAvg,status,SpdAvg,
2009-10-08, 00:00:04,VALID,918.712,VALID,0,VALID,86.9679,VALID,0.107441,VALID,19.2904,VALID,80,VALID,0.242578,
2009-10-08, 00:01:04,VALID,918.675,VALID,0,VALID,87.1356,VALID,0.107441,VALID,19.2709,VALID,80,VALID,0.153125,
2009-10-08, 00:02:04,VALID,918.688,VALID,0,VALID,87.0899,VALID,0,VALID,19.2723,VALID,80,VALID,0,
2009-10-08, 00:03:04,VALID,918.665,VALID,0,VALID,86.9222,VALID,0.107441,VALID,19.2709,VALID,80,VALID,0.435156,
2009-10-08, 00:04:04,VALID,918.66,VALID,0,VALID,86.8231,VALID,0.107441,VALID,19.2709,VALID,80,VALID,0.358594,
2009-10-08, 00:05:04,VALID,918.635,VALID,0,VALID,86.602,VALID,0.107441,VALID,19.2904,VALID,80,VALID,0.294531,
2009-10-08, 00:06:04,VALID,918.661,VALID,0,VALID,86.2971,VALID,0.107441,VALID,19.3489,VALID,80,VALID,0.328516,
2009-10-08, 00:07:04,VALID,918.653,VALID,0,VALID,86.0684,VALID,0.107441,VALID,19.3879,VALID,80,VALID,0.365625,
2009-10-08, 00:08:04,VALID,918.589,VALID,0,VALID,85.5576,VALID,0.107441,VALID,19.4658,VALID,80,VALID,0.375781,
2009-10-08, 00:09:04,VALID,918.591,VALID,0,VALID,85.3746,VALID,0.107441,VALID,19.5438,VALID,80,VALID,0.317187,
2009-10-08, 00:10:04,VALID,918.604,VALID,0,VALID,85.4051,VALID,0.107441,VALID,19.5453,VALID,80,VALID,0.1625,
2009-10-08, 00:11:04,VALID,918.552,VALID,0,VALID,85.4051,VALID,0.107441,VALID,19.5438,VALID,80,VALID,0,
2009-10-08, 00:12:04,VALID,918.567,VALID,0,VALID,85.55,VALID,0.107441,VALID,19.5438,VALID,80,VALID,0.0351563,
2009-10-08, 00:13:04,VALID,918.587,VALID,0,VALID,85.5728,VALID,0.107441,VALID,19.5243,VALID,80,VALID,0,
2009-10-08, 00:14:04,VALID,918.577,VALID,0,VALID,85.6033,VALID,0.107441,VALID,19.5243,VALID,80,VALID,0,
2009-10-08, 00:15:04,VALID,918.559,VALID,0,VALID,85.6338,VALID,0.107441,VALID,19.5048,VALID,80,VALID,0,
2009-10-08, 00:16:04,VALID,918.558,VALID,0,VALID,85.7939,VALID,0.107441,VALID,19.4658,VALID,80,VALID,0,
2009-10-08, 00:17:04,VALID,918.523,VALID,0,VALID,86.1903,VALID,0.107441,VALID,19.4658,VALID,80,VALID,0,
2009-10-08, 00:18:04,VALID,918.534,VALID,0,VALID,86.2742,VALID,0.107441,VALID,19.4268,VALID,80,VALID,0,
2009-10-08, 00:19:04,VALID,918.496,VALID,0,VALID,86.4114,VALID,0,VALID,19.3879,VALID,80,VALID,0,
2009-10-08, 00:20:04,VALID,918.525,VALID,0,VALID,86.5715,VALID,0.107441,VALID,19.3879,VALID,80,VALID,0,
2009-10-08, 00:21:04,VALID,918.473,VALID,0,VALID,86.7316,VALID,0.107441,VALID,19.3489,VALID,80,VALID,0,
2009-10-08, 00:22:04,VALID,918.496,VALID,0,VALID,86.9146,VALID,0.107441,VALID,19.2904,VALID,80,VALID,0.301562,
2009-10-08, 00:23:04,VALID,918.473,VALID,0,VALID,87.6083,VALID,0.107441,VALID,19.2124,VALID,80,VALID,0.411719,
2009-10-08, 00:24:04,VALID,918.464,VALID,0,VALID,87.7989,VALID,0.107441,VALID,19.1734,VALID,80,VALID,0.4625,
2009-10-08, 00:25:04,VALID,918.481,VALID,0,VALID,87.8751,VALID,0.107441,VALID,19.1539,VALID,80,VALID,0.321484,
2009-10-08, 00:26:04,VALID,918.443,VALID,0,VALID,87.9132,VALID,0.107441,VALID,19.1344,VALID,80,VALID,0.278906,
2009-10-08, 00:27:04,VALID,918.406,VALID,0,VALID,87.8827,VALID,0.107441,VALID,19.1149,VALID,80,VALID,0.0304688,
2009-10-08, 00:28:04,VALID,918.399,VALID,0,VALID,87.837,VALID,0.107441,VALID,19.1149,VALID,80,VALID,0,
2009-10-08, 00:29:04,VALID,918.375,VALID,0,VALID,87.7608,VALID,0,VALID,19.1359,VALID,80,VALID,0,
2009-10-08, 00:30:04,VALID,918.371,VALID,0,VALID,87.7913,VALID,0.107441,VALID,19.1344,VALID,80,VALID,0,
2009-10-08, 00:31:04,VALID,918.364,VALID,0,VALID,87.6845,VALID,0.107441,VALID,19.1539,VALID,80,VALID,0,
2009-10-08, 00:32:04,VALID,918.351,VALID,0,VALID,87.3339,VALID,0.107441,VALID,19.2139,VALID,80,VALID,0,
2009-10-08, 00:33:04,VALID,918.32,VALID,0,VALID,86.7545,VALID,0.107441,VALID,19.2124,VALID,80,VALID,0.101953,
2009-10-08, 00:34:04,VALID,918.32,VALID,0,VALID,87.4558,VALID,0.107441,VALID,19.1929,VALID,80,VALID,0,
2009-10-08, 00:35:04,VALID,918.312,VALID,0,VALID,87.6464,VALID,0.107441,VALID,19.1944,VALID,80,VALID,0,
2009-10-08, 00:36:04,VALID,918.35,VALID,0,VALID,87.715,VALID,0.107441,VALID,19.1929,VALID,80,VALID,0,
2009-10-08, 00:37:04,VALID,918.327,VALID,0,VALID,87.4177,VALID,0.107441,VALID,19.1749,VALID,80,VALID,0,
2009-10-08, 00:38:04,VALID,918.271,VALID,0,VALID,87.5168,VALID,0,VALID,19.1568,VALID,80,VALID,0,
2009-10-08, 00:39:04,VALID,918.244,VALID,0,VALID,87.7684,VALID,0,VALID,19.1359,VALID,80,VALID,0,
2009-10-08, 00:40:04,VALID,918.232,VALID,0,VALID,87.5778,VALID,0,VALID,19.1763,VALID,80,VALID,0,
2009-10-08, 00:41:04,VALID,918.212,VALID,0,VALID,87.5168,VALID,0,VALID,19.1749,VALID,80,VALID,0,
2009-10-08, 00:42:04,VALID,918.184,VALID,0,VALID,87.5016,VALID,0,VALID,19.1554,VALID,80,VALID,0,
2009-10-08, 00:43:04,VALID,918.179,VALID,0,VALID,87.6998,VALID,0,VALID,19.1359,VALID,80,VALID,0.39375,
2009-10-08, 00:44:04,VALID,918.168,VALID,0,VALID,87.8522,VALID,0,VALID,19.1164,VALID,80,VALID,0.178516,
2009-10-08, 00:45:04,VALID,918.134,VALID,0,VALID,87.9666,VALID,0,VALID,19.0969,VALID,80,VALID,0.355469,
2009-10-08, 00:46:04,VALID,918.125,VALID,0,VALID,87.9132,VALID,0,VALID,19.1164,VALID,80,VALID,0.461719,
2009-10-08, 00:47:04,VALID,918.096,VALID,0,VALID,87.654,VALID,0,VALID,19.1554,VALID,80,VALID,0.35,
2009-10-08, 00:48:04,VALID,918.074,VALID,0,VALID,87.2729,VALID,0.107441,VALID,19.2139,VALID,80,VALID,0.355078,
2009-10-08, 00:49:04,VALID,918.103,VALID,0,VALID,86.9984,VALID,0,VALID,19.2933,VALID,80,VALID,0.220313,
2009-10-08, 00:50:04,VALID,918.108,VALID,0,VALID,87.0442,VALID,0,VALID,19.2918,VALID,80,VALID,0.320703,
2009-10-08, 00:51:04,VALID,918.065,VALID,0,VALID,87.0747,VALID,0,VALID,19.3113,VALID,80,VALID,0.451953,
2009-10-08, 00:52:04,VALID,918.05,VALID,0,VALID,87.0365,VALID,0,VALID,19.4103,VALID,80,VALID,0.377344,
2009-10-08, 00:53:04,VALID,918.047,VALID,0,VALID,86.3276,VALID,0.107441,VALID,19.4074,VALID,80,VALID,0.439453,
2009-10-08, 00:54:04,VALID,918.034,VALID,0,VALID,86.3809,VALID,0.107441,VALID,19.3489,VALID,80,VALID,0.415625,
2009-10-08, 00:55:04,VALID,918.049,VALID,0,VALID,86.9146,VALID,0.107441,VALID,19.2709,VALID,80,VALID,0,
2009-10-08, 00:56:04,VALID,918.027,VALID,0,VALID,86.846,VALID,0,VALID,19.2709,VALID,80,VALID,0,
2009-10-08, 00:57:04,VALID,918.022,VALID,0,VALID,87.5244,VALID,0,VALID,19.2709,VALID,80,VALID,0,
2009-10-08, 00:58:04,VALID,918.004,VALID,0,VALID,87.4482,VALID,0,VALID,19.2709,VALID,80,VALID,0,
2009-10-08, 00:59:04,VALID,917.988,VALID,0,VALID,87.4253,VALID,0,VALID,19.2709,VALID,80,VALID,0,
2009-10-08, 01:00:04,VALID,917.984,VALID,0,VALID,87.5549,VALID,0,VALID,19.2709,VALID,80,VALID,0,
2009-10-08, 01:01:04,VALID,917.991,VALID,0,VALID,87.5168,VALID,0.107441,VALID,19.2904,VALID,80,VALID,0,
2009-10-08, 01:02:04,VALID,917.962,VALID,0,VALID,87.5244,VALID,0.107441,VALID,19.2904,VALID,80,VALID,0,
2009-10-08, 01:03:04,VALID,917.936,VALID,0,VALID,87.311,VALID,0.107441,VALID,19.3294,VALID,80,VALID,0,
2009-10-08, 01:04:04,VALID,917.95,VALID,0,VALID,86.8078,VALID,0.107441,VALID,19.4074,VALID,80,VALID,0,
2009-10-08, 01:05:04,VALID,917.958,VALID,0,VALID,86.9679,VALID,0.107441,VALID,19.4268,VALID,80,VALID,0,
2009-10-08, 01:06:04,VALID,917.962,VALID,0,VALID,86.9069,VALID,0,VALID,19.4463,VALID,80,VALID,0,
2009-10-08, 01:07:04,VALID,917.952,VALID,0,VALID,86.8536,VALID,0,VALID,19.4463,VALID,80,VALID,0,
2009-10-08, 01:08:04,VALID,917.953,VALID,0,VALID,86.8078,VALID,0,VALID,19.4463,VALID,80,VALID,0,
2009-10-08, 01:09:04,VALID,917.919,VALID,0,VALID,86.3657,VALID,0,VALID,19.4673,VALID,80,VALID,0,
2009-10-08, 01:10:04,VALID,917.907,VALID,0,VALID,87.1356,VALID,0,VALID,19.4283,VALID,80,VALID,0,
2009-10-08, 01:11:04,VALID,917.898,VALID,0,VALID,87.1585,VALID,0.107441,VALID,19.3489,VALID,80,VALID,0,
2009-10-08, 01:12:04,VALID,917.882,VALID,0,VALID,87.1356,VALID,0,VALID,19.3489,VALID,80,VALID,0,
2009-10-08, 01:13:04,VALID,917.843,VALID,0,VALID,87.4177,VALID,0,VALID,19.3294,VALID,80,VALID,0,
2009-10-08, 01:14:04,VALID,917.857,VALID,0,VALID,87.7531,VALID,0,VALID,19.2514,VALID,80,VALID,0,
2009-10-08, 01:15:04,VALID,917.807,VALID,0,VALID,87.433,VALID,0.107441,VALID,19.2319,VALID,80,VALID,0,
2009-10-08, 01:16:04,VALID,917.789,VALID,0,VALID,86.8231,VALID,0,VALID,19.2334,VALID,80,VALID,0,
2009-10-08, 01:17:04,VALID,917.81,VALID,0,VALID,87.6083,VALID,0,VALID,19.1749,VALID,80,VALID,0.136719,
2009-10-08, 01:18:04,VALID,917.818,VALID,0,VALID,88.4011,VALID,0,VALID,19.0954,VALID,80,VALID,0.174609,
2009-10-08, 01:19:04,VALID,917.802,VALID,0,VALID,88.6832,VALID,0.107441,VALID,19.0579,VALID,80,VALID,0.0792969,
2009-10-08, 01:20:04,VALID,917.81,VALID,0,VALID,88.9271,VALID,0,VALID,19.0189,VALID,80,VALID,0,
2009-10-08, 01:21:04,VALID,917.799,VALID,0,VALID,88.8509,VALID,0,VALID,18.9799,VALID,80,VALID,0.0351563,
2009-10-08, 01:22:04,VALID,917.774,VALID,0,VALID,89.2626,VALID,0,VALID,18.92,VALID,80,VALID,0,
2009-10-08, 01:23:04,VALID,917.766,VALID,0,VALID,89.3998,VALID,0,VALID,18.9019,VALID,80,VALID,0,
2009-10-08, 01:24:04,VALID,917.771,VALID,0,VALID,89.194,VALID,0,VALID,18.9214,VALID,80,VALID,0,
2009-10-08, 01:25:04,VALID,917.745,VALID,0,VALID,88.5002,VALID,0.107441,VALID,18.9019,VALID,80,VALID,0,
2009-10-08, 01:26:04,VALID,917.723,VALID,0,VALID,88.7594,VALID,0,VALID,18.881,VALID,80,VALID,0,
2009-10-08, 01:27:04,VALID,917.697,VALID,0,VALID,89.2473,VALID,0,VALID,18.9019,VALID,80,VALID,0,
2009-10-08, 01:28:04,VALID,917.682,VALID,0,VALID,89.3769,VALID,0.107441,VALID,18.881,VALID,80,VALID,0.183984,
2009-10-08, 01:29:04,VALID,917.659,VALID,0,VALID,89.2245,VALID,0,VALID,18.9214,VALID,80,VALID,0.226563,
2009-10-08, 01:30:04,VALID,917.626,VALID,0,VALID,89.3998,VALID,0,VALID,18.9019,VALID,80,VALID,0.426562,
2009-10-08, 01:31:04,VALID,917.639,VALID,0,VALID,89.4455,VALID,0.107441,VALID,18.8824,VALID,80,VALID,0.294141,
2009-10-08, 01:32:04,VALID,917.614,VALID,0,VALID,89.6209,VALID,0,VALID,18.842,VALID,80,VALID,0.388672,
2009-10-08, 01:33:04,VALID,917.604,VALID,0,VALID,89.5142,VALID,0,VALID,18.842,VALID,80,VALID,0.339063,
2009-10-08, 01:34:04,VALID,917.592,VALID,0,VALID,89.4989,VALID,0.107441,VALID,18.8615,VALID,80,VALID,0.315625,
2009-10-08, 01:35:04,VALID,917.528,VALID,0,VALID,89.7047,VALID,0,VALID,18.8629,VALID,80,VALID,0.38125,
2009-10-08, 01:36:04,VALID,917.501,VALID,0,VALID,89.3693,VALID,0,VALID,18.9409,VALID,80,VALID,0.330469,
2009-10-08, 01:37:04,VALID,917.494,VALID,0,VALID,88.4697,VALID,0.107441,VALID,19.0579,VALID,80,VALID,0.271484,
2009-10-08, 01:38:04,VALID,917.472,VALID,0,VALID,88.2715,VALID,0.107441,VALID,19.0774,VALID,80,VALID,0.239453,
2009-10-08, 01:39:04,VALID,917.47,VALID,0,VALID,87.6998,VALID,0.107441,VALID,19.0579,VALID,80,VALID,0,
2009-10-08, 01:40:04,VALID,917.449,VALID,0,VALID,88.1953,VALID,0,VALID,19.0579,VALID,80,VALID,0,
2009-10-08, 01:41:04,VALID,917.396,VALID,0,VALID,88.2715,VALID,0.107441,VALID,19.0384,VALID,80,VALID,0,
2009-10-08, 01:42:04,VALID,917.385,VALID,0,VALID,88.2639,VALID,0,VALID,19.0384,VALID,80,VALID,0.265234,
2009-10-08, 01:43:04,VALID,917.397,VALID,0,VALID,87.9513,VALID,0,VALID,19.0189,VALID,80,VALID,0,
2009-10-08, 01:44:04,VALID,917.384,VALID,0,VALID,88.0886,VALID,0,VALID,18.9994,VALID,80,VALID,0,
2009-10-08, 01:45:04,VALID,917.421,VALID,0,VALID,88.3401,VALID,0,VALID,18.9799,VALID,80,VALID,0,
2009-10-08, 01:46:04,VALID,917.415,VALID,0,VALID,88.0886,VALID,0,VALID,18.9994,VALID,80,VALID,0,
2009-10-08, 01:47:04,VALID,917.403,VALID,0,VALID,87.2729,VALID,0,VALID,18.9799,VALID,80,VALID,0,
2009-10-08, 01:48:04,VALID,917.416,VALID,0,VALID,89.1406,VALID,0,VALID,18.9409,VALID,80,VALID,0,
2009-10-08, 01:49:04,VALID,917.42,VALID,0,VALID,87.9285,VALID,0,VALID,18.9214,VALID,80,VALID,0,
2009-10-08, 01:50:04,VALID,917.417,VALID,0,VALID,87.7836,VALID,0,VALID,18.881,VALID,80,VALID,0,
2009-10-08, 01:51:04,VALID,917.387,VALID,0,VALID,87.6007,VALID,0,VALID,18.8615,VALID,80,VALID,0,
2009-10-08, 01:52:04,VALID,917.407,VALID,0,VALID,87.9895,VALID,0,VALID,18.842,VALID,80,VALID,0,
2009-10-08, 01:53:04,VALID,917.416,VALID,0,VALID,89.5828,VALID,0,VALID,18.803,VALID,80,VALID,0,
2009-10-08, 01:54:04,VALID,917.386,VALID,0,VALID,89.1025,VALID,0,VALID,18.824,VALID,80,VALID,0,
2009-10-08, 01:55:04,VALID,917.396,VALID,0,VALID,89.1254,VALID,0.107441,VALID,18.824,VALID,80,VALID,0,
2009-10-08, 01:56:04,VALID,917.384,VALID,0,VALID,86.9832,VALID,0,VALID,18.8045,VALID,80,VALID,0.344922,
2009-10-08, 01:57:04,VALID,917.364,VALID,0,VALID,89.8038,VALID,0,VALID,18.785,VALID,80,VALID,0.460938,
2009-10-08, 01:58:04,VALID,917.391,VALID,0,VALID,89.8496,VALID,0,VALID,18.7265,VALID,80,VALID,0.269922,
2009-10-08, 01:59:04,VALID,917.383,VALID,0,VALID,90.3756,VALID,0,VALID,18.629,VALID,80,VALID,0.485938,
2009-10-08, 02:00:04,VALID,917.366,VALID,0,VALID,90.7796,VALID,0,VALID,18.5511,VALID,80,VALID,0.630469,
2009-10-08, 02:01:04,VALID,917.343,VALID,0,VALID,91.3666,VALID,0,VALID,18.4536,VALID,80,VALID,0.657031,
2009-10-08, 02:02:04,VALID,917.355,VALID,0,VALID,91.7783,VALID,0.107441,VALID,18.4341,VALID,80,VALID,0.609375,
2009-10-08, 02:03:04,VALID,917.341,VALID,0,VALID,91.8164,VALID,0.107441,VALID,18.5121,VALID,80,VALID,0.603906,
2009-10-08, 02:04:04,VALID,917.328,VALID,0,VALID,91.2752,VALID,0.107441,VALID,18.6095,VALID,80,VALID,0.561719,
2009-10-08, 02:05:04,VALID,917.289,VALID,0,VALID,90.6577,VALID,0,VALID,18.707,VALID,80,VALID,0.511328,
2009-10-08, 02:06:04,VALID,917.256,VALID,0,VALID,90.2384,VALID,0,VALID,18.785,VALID,80,VALID,0.603125,
2009-10-08, 02:07:04,VALID,917.242,VALID,0,VALID,90.0173,VALID,0,VALID,18.8824,VALID,80,VALID,0.614453,
2009-10-08, 02:08:04,VALID,917.252,VALID,0,VALID,88.9271,VALID,0,VALID,18.9604,VALID,80,VALID,0.266406,
2009-10-08, 02:09:04,VALID,917.246,VALID,0,VALID,86.2056,VALID,0,VALID,18.9409,VALID,80,VALID,0.331641,
2009-10-08, 02:10:04,VALID,917.228,VALID,0,VALID,89.2245,VALID,0,VALID,18.8629,VALID,80,VALID,0.400391,
2009-10-08, 02:11:04,VALID,917.267,VALID,0,VALID,89.842,VALID,0,VALID,18.8045,VALID,80,VALID,0.367188,
2009-10-08, 02:12:04,VALID,917.24,VALID,0,VALID,89.6133,VALID,0.107441,VALID,18.8434,VALID,80,VALID,0.546875,
2009-10-08, 02:13:04,VALID,917.218,VALID,0,VALID,89.1101,VALID,0,VALID,18.8434,VALID,80,VALID,0.265234,
2009-10-08, 02:14:04,VALID,917.243,VALID,0,VALID,88.5079,VALID,0,VALID,18.8434,VALID,80,VALID,0.323828,
2009-10-08, 02:15:04,VALID,917.252,VALID,0,VALID,89.8191,VALID,0,VALID,18.8045,VALID,80,VALID,0.290234,
2009-10-08, 02:16:04,VALID,917.277,VALID,0,VALID,89.9334,VALID,0,VALID,18.7655,VALID,80,VALID,0.333203,
2009-10-08, 02:17:04,VALID,917.268,VALID,0,VALID,90.0935,VALID,0,VALID,18.707,VALID,80,VALID,0.189844,
2009-10-08, 02:18:04,VALID,917.289,VALID,0,VALID,90.2536,VALID,0,VALID,18.6875,VALID,80,VALID,0.428516,
2009-10-08, 02:19:04,VALID,917.268,VALID,0,VALID,90.4976,VALID,0,VALID,18.6485,VALID,80,VALID,0.433203,
2009-10-08, 02:20:04,VALID,917.3,VALID,0,VALID,90.7415,VALID,0,VALID,18.6485,VALID,80,VALID,0.294141,
2009-10-08, 02:21:04,VALID,917.292,VALID,0,VALID,91.0998,VALID,0,VALID,18.6276,VALID,80,VALID,0.423047,
2009-10-08, 02:22:04,VALID,917.31,VALID,0,VALID,90.7873,VALID,0,VALID,18.707,VALID,80,VALID,0.476953,
2009-10-08, 02:23:04,VALID,917.304,VALID,0,VALID,89.8191,VALID,0,VALID,18.707,VALID,80,VALID,0.525781,
2009-10-08, 02:24:04,VALID,917.28,VALID,0,VALID,89.5523,VALID,0.107441,VALID,18.668,VALID,80,VALID,0.0902344,
2009-10-08, 02:25:04,VALID,917.308,VALID,0,VALID,90.2384,VALID,0,VALID,18.629,VALID,80,VALID,0.382031,
2009-10-08, 02:26:04,VALID,917.266,VALID,0,VALID,90.4137,VALID,0,VALID,18.6485,VALID,80,VALID,0.597656,
2009-10-08, 02:27:04,VALID,917.258,VALID,0,VALID,88.5993,VALID,0,VALID,18.6875,VALID,80,VALID,0.316406,
2009-10-08, 02:28:04,VALID,917.245,VALID,0,VALID,89.5599,VALID,0,VALID,18.7265,VALID,80,VALID,0.0363281,
2009-10-08, 02:29:04,VALID,917.244,VALID,0,VALID,89.5065,VALID,0,VALID,18.746,VALID,80,VALID,0,
2009-10-08, 02:30:04,VALID,917.231,VALID,0,VALID,89.2702,VALID,0,VALID,18.785,VALID,80,VALID,0,
2009-10-08, 02:31:04,VALID,917.226,VALID,0,VALID,89.9106,VALID,0,VALID,18.8449,VALID,80,VALID,0.333594,
2009-10-08, 02:32:04,VALID,917.234,VALID,0,VALID,88.3935,VALID,0,VALID,18.8629,VALID,80,VALID,0.521484,
2009-10-08, 02:33:04,VALID,917.234,VALID,0,VALID,89.6133,VALID,0,VALID,18.9214,VALID,80,VALID,0.720703,
2009-10-08, 02:34:04,VALID,917.23,VALID,0,VALID,89.0872,VALID,0,VALID,18.9604,VALID,80,VALID,0.475,
2009-10-08, 02:35:04,VALID,917.231,VALID,0,VALID,89.0415,VALID,0,VALID,18.9604,VALID,80,VALID,0.678125,
2009-10-08, 02:36:04,VALID,917.236,VALID,0,VALID,87.7989,VALID,0,VALID,18.9604,VALID,80,VALID,0.676172,
2009-10-08, 02:37:04,VALID,917.259,VALID,0,VALID,89.3159,VALID,0,VALID,18.9214,VALID,80,VALID,0.761328,
2009-10-08, 02:38:04,VALID,917.266,VALID,0,VALID,88.9043,VALID,0,VALID,18.9424,VALID,80,VALID,0.744531,
2009-10-08, 02:39:04,VALID,917.253,VALID,0,VALID,88.668,VALID,0,VALID,18.9604,VALID,80,VALID,0.607813,
2009-10-08, 02:40:04,VALID,917.218,VALID,0,VALID,88.9805,VALID,0,VALID,18.9214,VALID,80,VALID,0.808984,
2009-10-08, 02:41:04,VALID,917.215,VALID,0,VALID,90.0021,VALID,0,VALID,18.8434,VALID,80,VALID,0.872266,
2009-10-08, 02:42:04,VALID,917.21,VALID,0,VALID,90.1545,VALID,0,VALID,18.8045,VALID,80,VALID,0.738281,
2009-10-08, 02:43:04,VALID,917.252,VALID,0,VALID,90.0097,VALID,0,VALID,18.824,VALID,80,VALID,0.829687,
2009-10-08, 02:44:04,VALID,917.275,VALID,0,VALID,89.8496,VALID,0,VALID,18.824,VALID,80,VALID,0.819141,
2009-10-08, 02:45:04,VALID,917.291,VALID,0,VALID,88.5993,VALID,0.107441,VALID,18.764,VALID,80,VALID,0.819531,
2009-10-08, 02:46:04,VALID,917.305,VALID,0,VALID,89.2702,VALID,0,VALID,18.668,VALID,80,VALID,0.865234,
2009-10-08, 02:47:04,VALID,917.253,VALID,0,VALID,91.42,VALID,0,VALID,18.5316,VALID,80,VALID,1.02695,
2009-10-08, 02:48:04,VALID,917.242,VALID,0,VALID,91.8545,VALID,0,VALID,18.4926,VALID,80,VALID,1.03242,
2009-10-08, 02:49:04,VALID,917.212,VALID,0,VALID,91.4734,VALID,0,VALID,18.5316,VALID,80,VALID,0.760938,
2009-10-08, 02:50:04,VALID,917.233,VALID,0,VALID,91.0236,VALID,0,VALID,18.5705,VALID,80,VALID,0.55,
2009-10-08, 02:51:04,VALID,917.208,VALID,0,VALID,90.772,VALID,0,VALID,18.6095,VALID,80,VALID,0.537109,
2009-10-08, 02:52:04,VALID,917.254,VALID,0,VALID,90.3908,VALID,0,VALID,18.6095,VALID,80,VALID,0.264844,
2009-10-08, 02:53:04,VALID,917.243,VALID,0,VALID,90.5281,VALID,0,VALID,18.6095,VALID,80,VALID,0.423828,
2009-10-08, 02:54:04,VALID,917.25,VALID,0,VALID,90.1393,VALID,0.107441,VALID,18.59,VALID,80,VALID,0.071875,
2009-10-08, 02:55:04,VALID,917.227,VALID,0,VALID,90.8864,VALID,0.107441,VALID,18.59,VALID,80,VALID,0.314063,
2009-10-08, 02:56:04,VALID,917.196,VALID,0,VALID,90.4595,VALID,0,VALID,18.5511,VALID,80,VALID,0.408984,
2009-10-08, 02:57:04,VALID,917.209,VALID,0,VALID,90.2612,VALID,0,VALID,18.5316,VALID,80,VALID,0.0960938,
2009-10-08, 02:58:04,VALID,917.212,VALID,0,VALID,89.4608,VALID,0,VALID,18.4731,VALID,80,VALID,0,
2009-10-08, 02:59:04,VALID,917.232,VALID,0,VALID,90.5433,VALID,0,VALID,18.3951,VALID,80,VALID,0.205469,
2009-10-08, 03:00:04,VALID,917.21,VALID,0,VALID,91.5496,VALID,0,VALID,18.3951,VALID,80,VALID,0,
2009-10-08, 03:01:04,VALID,917.172,VALID,0,VALID,92.1595,VALID,0,VALID,18.3951,VALID,80,VALID,0.203516,
2009-10-08, 03:02:04,VALID,917.178,VALID,0,VALID,92.3577,VALID,0,VALID,18.455,VALID,80,VALID,0.216797,
2009-10-08, 03:03:04,VALID,917.176,VALID,0,VALID,92.2281,VALID,0,VALID,18.4926,VALID,80,VALID,0,
2009-10-08, 03:04:04,VALID,917.149,VALID,0,VALID,92.0375,VALID,0,VALID,18.5525,VALID,80,VALID,0.198437,
2009-10-08, 03:05:04,VALID,917.126,VALID,0,VALID,91.6716,VALID,0,VALID,18.5705,VALID,80,VALID,0.165234,
2009-10-08, 03:06:04,VALID,917.118,VALID,0,VALID,91.6792,VALID,0,VALID,18.6081,VALID,80,VALID,0.0339844,
2009-10-08, 03:07:04,VALID,917.097,VALID,0,VALID,89.9563,VALID,0,VALID,18.668,VALID,80,VALID,0,
2009-10-08, 03:08:04,VALID,917.106,VALID,0,VALID,89.3159,VALID,0.107441,VALID,18.6875,VALID,80,VALID,0.696094,
2009-10-08, 03:09:04,VALID,917.075,VALID,0,VALID,91.4124,VALID,0,VALID,18.629,VALID,80,VALID,0.624609,
2009-10-08, 03:10:04,VALID,917.076,VALID,0,VALID,90.7339,VALID,0,VALID,18.6095,VALID,80,VALID,0.280078,
2009-10-08, 03:11:04,VALID,917.046,VALID,0,VALID,91.6106,VALID,0,VALID,18.6485,VALID,80,VALID,0.628906,
2009-10-08, 03:12:04,VALID,917.042,VALID,0,VALID,90.5357,VALID,0,VALID,18.6875,VALID,80,VALID,0.791406,
2009-10-08, 03:13:04,VALID,917.04,VALID,0,VALID,90.0554,VALID,0.107441,VALID,18.6875,VALID,80,VALID,0.437891,
2009-10-08, 03:14:04,VALID,917.029,VALID,0,VALID,90.9778,VALID,0,VALID,18.668,VALID,80,VALID,0.173438,
2009-10-08, 03:15:04,VALID,917.065,VALID,0,VALID,90.9245,VALID,0,VALID,18.6875,VALID,80,VALID,0.00273437,
2009-10-08, 03:16:04,VALID,917.055,VALID,0,VALID,91.2142,VALID,0,VALID,18.7265,VALID,80,VALID,0.300781,
2009-10-08, 03:17:04,VALID,917.02,VALID,0,VALID,90.65,VALID,0,VALID,18.7655,VALID,80,VALID,0.258984,
2009-10-08, 03:18:04,VALID,917.008,VALID,0,VALID,90.1393,VALID,0.107441,VALID,18.8045,VALID,80,VALID,0,
2009-10-08, 03:19:04,VALID,917.027,VALID,0,VALID,90.2612,VALID,0,VALID,18.8045,VALID,80,VALID,0,
2009-10-08, 03:20:04,VALID,917.044,VALID,0,VALID,89.4227,VALID,0.107441,VALID,18.7655,VALID,80,VALID,0,
2009-10-08, 03:21:04,VALID,917.027,VALID,0,VALID,90.4366,VALID,0,VALID,18.785,VALID,80,VALID,0,
2009-10-08, 03:22:04,VALID,917.012,VALID,0,VALID,90.8483,VALID,0,VALID,18.7655,VALID,80,VALID,0,
2009-10-08, 03:23:04,VALID,917,VALID,0,VALID,90.3375,VALID,0,VALID,18.7669,VALID,80,VALID,0,
2009-10-08, 03:24:04,VALID,916.975,VALID,0,VALID,91.3133,VALID,0,VALID,18.7265,VALID,80,VALID,0,
2009-10-08, 03:25:04,VALID,916.99,VALID,0,VALID,91.1303,VALID,0,VALID,18.7655,VALID,80,VALID,0.301953,
2009-10-08, 03:26:04,VALID,916.971,VALID,0,VALID,90.9626,VALID,0,VALID,18.785,VALID,80,VALID,0.249609,
2009-10-08, 03:27:04,VALID,916.981,VALID,0,VALID,90.0859,VALID,0.107441,VALID,18.7835,VALID,80,VALID,0,
2009-10-08, 03:28:04,VALID,916.984,VALID,0,VALID,91.0007,VALID,0,VALID,18.785,VALID,80,VALID,0,
2009-10-08, 03:29:04,VALID,916.993,VALID,0,VALID,90.8254,VALID,0,VALID,18.7655,VALID,80,VALID,0,
2009-10-08, 03:30:04,VALID,917.021,VALID,0,VALID,91.1227,VALID,0,VALID,18.746,VALID,80,VALID,0,
2009-10-08, 03:31:04,VALID,917.01,VALID,0,VALID,91.7021,VALID,0,VALID,18.746,VALID,80,VALID,0.371094,
2009-10-08, 03:32:04,VALID,917.013,VALID,0,VALID,91.0465,VALID,0,VALID,18.785,VALID,80,VALID,0.469922,
2009-10-08, 03:33:04,VALID,917.01,VALID,0,VALID,91.0541,VALID,0,VALID,18.824,VALID,80,VALID,0.516406,
2009-10-08, 03:34:04,VALID,917.032,VALID,0,VALID,90.7263,VALID,0,VALID,18.824,VALID,80,VALID,0,
2009-10-08, 03:35:04,VALID,917.017,VALID,0,VALID,90.4366,VALID,0,VALID,18.824,VALID,80,VALID,0,
2009-10-08, 03:36:04,VALID,917.008,VALID,0,VALID,90.5509,VALID,0,VALID,18.8045,VALID,80,VALID,0.114063,
2009-10-08, 03:37:04,VALID,917.031,VALID,0,VALID,90.8025,VALID,0,VALID,18.824,VALID,80,VALID,0.501953,
2009-10-08, 03:38:04,VALID,917.02,VALID,0,VALID,90.3985,VALID,0.107441,VALID,18.8434,VALID,80,VALID,0.496094,
2009-10-08, 03:39:04,VALID,917.01,VALID,0,VALID,87.9056,VALID,0.107441,VALID,18.803,VALID,80,VALID,0.0316406,
2009-10-08, 03:40:04,VALID,916.999,VALID,0,VALID,90.955,VALID,0.107441,VALID,18.785,VALID,80,VALID,0.310156,
2009-10-08, 03:41:04,VALID,917,VALID,0,VALID,90.1393,VALID,0.107441,VALID,18.7655,VALID,80,VALID,0.372266,
2009-10-08, 03:42:04,VALID,916.979,VALID,0,VALID,89.842,VALID,0.107441,VALID,18.7251,VALID,80,VALID,0.392969,
2009-10-08, 03:43:04,VALID,916.968,VALID,0,VALID,91.7707,VALID,0.107441,VALID,18.7251,VALID,80,VALID,0.375,
2009-10-08, 03:44:04,VALID,916.963,VALID,0,VALID,91.6335,VALID,0.107441,VALID,18.707,VALID,80,VALID,0.366406,
2009-10-08, 03:45:04,VALID,916.941,VALID,0,VALID,90.0935,VALID,0.107441,VALID,18.668,VALID,80,VALID,0.460547,
2009-10-08, 03:46:04,VALID,916.903,VALID,0,VALID,91.4124,VALID,0.107441,VALID,18.6875,VALID,80,VALID,0.373047,
2009-10-08, 03:47:05,VALID,916.897,VALID,0,VALID,91.5877,VALID,0.107441,VALID,18.6861,VALID,80,VALID,0.326172,